Indianapolis, IN

5:06 PM EST on November 11, 2019 (GMT -0500)
Indianapolis Terry

Weather History for KTYQ - June, 2019

Change the Weather History Date:

Thursday, June 13, 2019

  Actual Average (WUND) Record (WUND)
Temperature  
Mean Temperature 54 °F -  
Max Temperature 61 °F - - (-1)
Min Temperature 47 °F - - (-1)
Degree Days  
Heating Degree Days 10    
Growing Degree Days 4 (Base 50)    
Moisture  
Dew Point 51 °F    
Average Humidity 85    
Maximum Humidity 100    
Minimum Humidity 60    
Precipitation  
Precipitation 0.00 in - - ()
Sea Level Pressure  
Sea Level Pressure 29.88 in    
Wind  
Wind Speed 8 mph ()    
Max Wind Speed 22 mph    
Max Gust Speed 32 mph    
Visibility 9.8 miles    
Events Rain    
Averages and records for this station are not official NWS values.
T = Trace of Precipitation, MM = Missing Value Source: Averaged Metar Reports

Daily Weather History Graph

Daily Weather History Graph

Search for Another Location

Airport or City:

Astronomy

Jun. 13, 2019 Rise Set
Actual Time 6:15 AM EDT 9:14 PM EDT
Civil Twilight 5:42 AM EDT 9:47 PM EDT
Nautical Twilight 5:01 AM EDT 10:29 PM EDT
Astronomical Twilight 4:12 AM EDT 11:17 PM EDT
Moon 5:28 PM EDT (6/13) 4:00 AM EDT (6/13)
Length of Visible Light 16h 04m
Length of Day
14h 59m
Waxing Gibbous, 85% of the Moon is Illuminated
Jun 13
Waxing Gibbous
Jun 17
Full
Jun 25
Last Quarter
Jul 2
New
Jul 9
First Quarter

Hourly Weather History & Observations

Time (EDT) Temp. Dew Point Humidity Pressure Visibility Wind Dir Wind Speed Gust Speed Precip Events Conditions
12:15 AM 55.6 °F 54.7 °F 97% 29.82 in 10.0 mi Calm Calm - N/A Rain Rain
12:35 AM 55.8 °F 55.2 °F 98% 29.80 in 10.0 mi Calm Calm - N/A Rain Light Rain
12:55 AM 55.4 °F 55.4 °F 100% 29.79 in 10.0 mi Calm Calm - N/A   Light Drizzle
1:15 AM 55.6 °F 55.6 °F 100% 29.78 in 10.0 mi Calm Calm - N/A Rain Light Rain
1:35 AM 55.2 °F 55.2 °F 100% 29.78 in 10.0 mi South 3.5 mph - N/A   Overcast
1:55 AM 54.5 °F 54.5 °F 100% 29.77 in 10.0 mi SW 3.5 mph - N/A   Mostly Cloudy
2:15 AM 54.5 °F 54.5 °F 100% 29.76 in 10.0 mi SW 5.8 mph - N/A   Scattered Clouds
2:35 AM 54.5 °F 54.5 °F 100% 29.76 in 10.0 mi SW 5.8 mph - N/A   Scattered Clouds
2:55 AM 54.5 °F 54.5 °F 100% 29.75 in 10.0 mi SW 4.6 mph - N/A   Mostly Cloudy
3:15 AM 54.0 °F 54.0 °F 100% 29.75 in 10.0 mi WSW 5.8 mph - N/A   Scattered Clouds
3:35 AM 54.5 °F 54.5 °F 100% 29.75 in 10.0 mi SW 5.8 mph - N/A   Mostly Cloudy
3:55 AM 54.5 °F 54.5 °F 100% 29.74 in 10.0 mi SW 6.9 mph - N/A   Overcast
4:15 AM 54.3 °F 54.3 °F 100% 29.74 in 10.0 mi SW 5.8 mph - N/A   Mostly Cloudy
4:35 AM 53.8 °F 53.8 °F 100% 29.74 in 10.0 mi SW 8.1 mph - N/A   Scattered Clouds
4:55 AM 54.3 °F 54.3 °F 100% 29.74 in 10.0 mi SW 6.9 mph - N/A   Mostly Cloudy
5:15 AM 54.5 °F 54.5 °F 100% 29.74 in 7.0 mi WSW 9.2 mph - N/A Rain Light Rain
5:35 AM 54.7 °F 54.7 °F 100% 29.74 in 7.0 mi West 10.4 mph 16.1 mph N/A   Overcast
5:55 AM 54.5 °F 54.5 °F 100% 29.74 in 10.0 mi West 9.2 mph 18.4 mph N/A   Overcast
6:15 AM 54.5 °F 54.5 °F 100% 29.75 in 10.0 mi West 11.5 mph - N/A   Overcast
6:35 AM 53.8 °F 53.6 °F 99% 29.76 in 10.0 mi West 12.7 mph 17.3 mph N/A   Overcast
6:55 AM 53.6 °F 52.7 °F 97% 29.76 in 10.0 mi WNW 12.7 mph 18.4 mph N/A   Overcast
7:15 AM 53.6 °F 50.7 °F 90% 29.77 in 10.0 mi NW 16.1 mph 29.9 mph N/A   Overcast
7:35 AM 53.2 °F 50.5 °F 91% 29.78 in 10.0 mi WNW 12.7 mph 27.6 mph N/A   Overcast
7:55 AM 53.6 °F 49.1 °F 85% 29.79 in 10.0 mi WNW 13.8 mph 19.6 mph N/A   Overcast
8:15 AM 53.6 °F 48.9 °F 84% 29.79 in 10.0 mi NW 13.8 mph 24.2 mph N/A   Overcast
8:35 AM 53.6 °F 50.0 °F 88% 29.79 in 10.0 mi WNW 13.8 mph 23.0 mph N/A   Overcast
8:55 AM 53.2 °F 50.7 °F 91% 29.80 in 10.0 mi West 15.0 mph 24.2 mph N/A   Overcast
9:15 AM 52.9 °F 50.4 °F 91% 29.81 in 10.0 mi West 18.4 mph 28.8 mph N/A   Overcast
9:35 AM 53.6 °F 50.4 °F 89% 29.82 in 10.0 mi West 16.1 mph 29.9 mph N/A   Overcast
9:55 AM 52.7 °F 50.4 °F 92% 29.83 in 7.0 mi WNW 11.5 mph 26.5 mph N/A   Overcast
10:15 AM 53.6 °F 49.6 °F 86% 29.83 in 10.0 mi WNW 13.8 mph 31.1 mph N/A   Overcast
10:35 AM 54.7 °F 49.3 °F 82% 29.83 in 10.0 mi WNW 16.1 mph 24.2 mph N/A   Overcast
10:55 AM 56.3 °F 48.7 °F 76% 29.83 in 10.0 mi WNW 20.7 mph 29.9 mph N/A   Overcast
11:15 AM 56.5 °F 48.4 °F 74% 29.85 in 10.0 mi WNW 15.0 mph 24.2 mph N/A   Overcast
11:35 AM 55.6 °F 48.4 °F 77% 29.85 in 10.0 mi West 18.4 mph 27.6 mph N/A   Overcast
11:55 AM 57.2 °F 48.6 °F 73% 29.86 in 10.0 mi West 20.7 mph 28.8 mph N/A   Overcast
12:15 PM 55.8 °F 48.9 °F 78% 29.87 in 10.0 mi WNW 12.7 mph 25.3 mph N/A   Overcast
12:35 PM 57.6 °F 49.3 °F 74% 29.87 in 10.0 mi West 16.1 mph 25.3 mph N/A   Overcast
12:55 PM 58.1 °F 48.4 °F 70% 29.88 in 10.0 mi WNW 16.1 mph 28.8 mph N/A   Overcast
1:15 PM 59.9 °F 49.1 °F 67% 29.88 in 10.0 mi WNW 15.0 mph 29.9 mph N/A   Overcast
1:35 PM 59.5 °F 48.6 °F 67% 29.89 in 10.0 mi WNW 16.1 mph 23.0 mph N/A   Overcast
1:55 PM 60.3 °F 48.2 °F 64% 29.90 in 10.0 mi WNW 18.4 mph 28.8 mph N/A   Overcast
2:15 PM 61.2 °F 47.5 °F 61% 29.90 in 10.0 mi WNW 19.6 mph 26.5 mph N/A   Overcast
2:35 PM 60.1 °F 47.1 °F 62% 29.91 in 10.0 mi NW 19.6 mph 27.6 mph N/A   Overcast
2:50 PM 56.7 °F 50.5 °F 80% 29.92 in 10.0 mi NNW 17.3 mph 27.6 mph N/A Rain Light Rain
3:15 PM 54.1 °F 51.4 °F 91% 29.94 in 7.0 mi NW 21.9 mph 32.2 mph N/A Rain Light Rain
3:35 PM 56.7 °F 52.5 °F 86% 29.95 in 10.0 mi NW 18.4 mph 28.8 mph N/A   Overcast
3:55 PM 56.8 °F 53.1 °F 87% 29.96 in 10.0 mi NW 17.3 mph 27.6 mph N/A   Overcast
4:15 PM 57.6 °F 49.5 °F 74% 29.96 in 10.0 mi NW 17.3 mph 21.9 mph N/A   Mostly Cloudy
4:35 PM 59.9 °F 47.8 °F 64% 29.96 in 10.0 mi NNW 21.9 mph 27.6 mph N/A   Mostly Cloudy
4:55 PM 59.9 °F 46.9 °F 62% 29.97 in 10.0 mi NW 15.0 mph 28.8 mph N/A   Mostly Cloudy
5:15 PM 60.6 °F 46.8 °F 60% 29.97 in 10.0 mi NNW 17.3 mph 25.3 mph N/A   Scattered Clouds
5:35 PM 59.2 °F 46.2 °F 62% 29.98 in 10.0 mi NNW 16.1 mph 21.9 mph N/A   Mostly Cloudy
5:55 PM 57.6 °F 46.9 °F 68% 29.99 in 10.0 mi NW 13.8 mph 20.7 mph N/A   Light Drizzle
6:15 PM 59.9 °F 47.3 °F 63% 29.99 in 10.0 mi NW 12.7 mph 18.4 mph N/A   Overcast
6:35 PM 56.8 °F 48.0 °F 72% 30.01 in 10.0 mi NNW 16.1 mph 20.7 mph N/A Rain Rain
6:55 PM 55.4 °F 50.9 °F 85% 30.00 in 10.0 mi North 6.9 mph - N/A Rain Light Rain
7:15 PM 57.0 °F 50.2 °F 78% 30.01 in 10.0 mi NNW 5.8 mph - N/A   Mostly Cloudy
7:35 PM 58.3 °F 49.3 °F 72% 30.01 in 10.0 mi NW 3.5 mph - N/A   Scattered Clouds
7:55 PM 58.5 °F 48.4 °F 69% 30.02 in 10.0 mi WNW 3.5 mph - N/A   Scattered Clouds
8:15 PM 59.0 °F 48.9 °F 69% 30.02 in 10.0 mi NW 3.5 mph - N/A   Clear
8:35 PM 58.3 °F 48.9 °F 71% 30.03 in 10.0 mi WNW 4.6 mph - N/A   Clear
8:55 PM 57.4 °F 49.5 °F 75% 30.03 in 10.0 mi Calm Calm - N/A   Clear
9:15 PM 56.7 °F 49.1 °F 76% 30.03 in 10.0 mi Calm Calm - N/A   Clear
9:35 PM 54.5 °F 49.3 °F 83% 30.04 in 10.0 mi West 3.5 mph - N/A   Clear
9:55 PM 51.8 °F 50.4 °F 95% 30.04 in 10.0 mi WSW 3.5 mph - N/A   Clear
10:15 PM 51.3 °F 49.8 °F 95% 30.06 in 10.0 mi Calm Calm - N/A   Clear
10:35 PM 50.7 °F 50.0 °F 97% 30.06 in 10.0 mi Calm Calm - N/A   Clear
10:55 PM 49.1 °F 49.1 °F 100% 30.07 in 10.0 mi NE 4.6 mph - N/A   Clear
11:15 PM 50.5 °F 49.8 °F 97% 30.08 in 10.0 mi Calm Calm - N/A   Clear
11:35 PM 48.6 °F 48.6 °F 100% 30.08 in 10.0 mi Calm Calm - N/A   Clear
11:55 PM 47.7 °F 47.7 °F 100% 30.08 in 10.0 mi SSW 3.5 mph - N/A   Clear